Terug naar catalogus

STARLINK-32380

ActiefCommunicatieVLEO
NORAD 61069·PAYLOAD·🇺🇸 United States

Gelanceerd Sep 13, 2024 vanaf Vandenberg Space Force Base

Loading…

Volgende Passages (komende 24 uur)

TLE

VersSource: CelesTrak SupGP

Epoch: Sep 14, 2026, 21:35 UTC

1 61069C 24164V   26257.89979167  .00030104  00000+0  96918-3 0  2577
2 61069  53.1589 290.9986 0001023 112.1647 269.4112 15.31649921    13

Volg STARLINK-32380 in realtime met AllMySat

Download on the App Store